Luverne, MN

5:11 AM CST on December 13, 2019 (GMT -0600)
Luverne

Weather History for KLYV - November, 2019

Change the Weather History Date:

Friday, November 15, 2019

  Actual Average (KPQN) Record (KPQN)
Temperature  
Mean Temperature 37 °F -  
Max Temperature 53 °F 40 °F 66 °F (2001)
Min Temperature 21 °F 23 °F 1 °F (1996)
Degree Days  
Heating Degree Days 28    
Moisture  
Dew Point 28 °F    
Average Humidity 78    
Maximum Humidity 100    
Minimum Humidity 44    
Precipitation  
Precipitation 0.00 in - - ()
Sea Level Pressure  
Sea Level Pressure 30.20 in    
Wind  
Wind Speed 4 mph (SSE)    
Max Wind Speed 13 mph    
Max Gust Speed 17 mph    
Visibility 10 miles    
Events      
Averages and records for this station are not official NWS values.
T = Trace of Precipitation, MM = Missing Value Source: NWS Daily Summary

Daily Weather History Graph

Daily Weather History Graph

Search for Another Location

Airport or City:

Astronomy

Nov. 15, 2019 Rise Set
Actual Time 7:18 AM CST 4:59 PM CST
Civil Twilight 6:47 AM CST 5:30 PM CST
Nautical Twilight 6:12 AM CST 6:05 PM CST
Astronomical Twilight 5:39 AM CST 6:39 PM CST
Moon 7:32 PM CST (11/15) 10:19 AM CST (11/15)
Length of Visible Light 10h 43m
Length of Day
9h 41m
Waning Gibbous, 90% of the Moon is Illuminated
Nov 15
Waning Gibbous
Nov 19
Last Quarter
Nov 26
New
Dec 4
First Quarter
Dec 11
Full

Hourly Weather History & Observations

Time (CST) Temp. Windchill Dew Point Humidity Pressure Visibility Wind Dir Wind Speed Gust Speed Precip Events Conditions
12:18 AM 26.6 °F - 23.0 °F 86% 30.26 in 10.0 mi Calm Calm - N/A   Clear
12:35 AM 23.0 °F 17.0 °F 21.2 °F 93% 30.26 in 10.0 mi SSW 4.6 mph - N/A   Clear
12:56 AM 23.0 °F 17.0 °F 21.2 °F 93% 30.26 in 10.0 mi SSW 4.6 mph - N/A   Clear
1:38 AM 24.8 °F - 23.0 °F 93% 30.26 in 10.0 mi Calm Calm - N/A   Clear
1:56 AM 26.6 °F - 23.0 °F 86% 30.26 in 10.0 mi Calm Calm - N/A   Clear
2:16 AM 24.8 °F - 23.0 °F 93% 30.26 in 10.0 mi Calm Calm - N/A   Clear
2:36 AM 23.0 °F - 23.0 °F 100% 30.26 in 7.0 mi Calm Calm - N/A   Clear
2:55 AM 21.2 °F - 19.4 °F 93% 30.26 in 7.0 mi Calm Calm - N/A   Clear
2:59 AM 21.2 °F - 19.4 °F 93% 30.26 in 10.0 mi Calm Calm - N/A   Clear
3:16 AM 23.0 °F - 21.2 °F 93% 30.26 in 10.0 mi Calm Calm - N/A   Clear
3:36 AM 23.0 °F - 21.2 °F 93% 30.25 in 7.0 mi Calm Calm - N/A   Clear
3:56 AM 23.0 °F - 21.2 °F 93% 30.25 in 7.0 mi Calm Calm - N/A   Clear
4:15 AM 23.0 °F - 21.2 °F 93% 30.25 in 10.0 mi Calm Calm - N/A   Clear
4:20 AM 23.0 °F - 21.2 °F 93% 30.25 in 10.0 mi Calm Calm - N/A   Clear
4:38 AM 23.0 °F - 21.2 °F 93% 30.25 in 7.0 mi Calm Calm - N/A   Clear
4:56 AM 23.0 °F - 21.2 °F 93% 30.24 in 10.0 mi Calm Calm - N/A   Clear
5:16 AM 23.0 °F - 21.2 °F 93% 30.25 in 10.0 mi Calm Calm - N/A   Clear
5:36 AM 23.0 °F - 21.2 °F 93% 30.25 in 10.0 mi Calm Calm - N/A   Clear
5:59 AM 23.0 °F 18.4 °F 21.2 °F 93% 30.25 in 10.0 mi ENE 3.5 mph - N/A   Clear
6:17 AM 23.0 °F - 21.2 °F 93% 30.25 in 10.0 mi Calm Calm - N/A   Clear
6:36 AM 23.0 °F - 21.2 °F 93% 30.24 in 10.0 mi Calm Calm - N/A   Clear
6:56 AM 23.0 °F - 21.2 °F 93% 30.24 in 10.0 mi Calm Calm - N/A   Clear
7:15 AM 23.0 °F - 21.2 °F 93% 30.24 in 10.0 mi Calm Calm - N/A   Clear
7:37 AM 24.8 °F - 21.2 °F 86% 30.24 in 10.0 mi Calm Calm - N/A   Clear
7:55 AM 24.8 °F - 21.2 °F 86% 30.24 in 10.0 mi Calm Calm - N/A   Clear
8:36 AM 26.6 °F - 23.0 °F 86% 30.25 in 7.0 mi Calm Calm - N/A   Clear
8:59 AM 30.2 °F 26.7 °F 26.6 °F 86% 30.24 in 10.0 mi SE 3.5 mph - N/A   Clear
9:16 AM 32.0 °F 26.4 °F 28.4 °F 87% 30.24 in 10.0 mi SSE 5.8 mph - N/A   Clear
9:36 AM 32.0 °F 27.5 °F 28.4 °F 87% 30.24 in 10.0 mi SE 4.6 mph - N/A   Clear
9:56 AM 33.8 °F 29.6 °F 28.4 °F 81% 30.24 in 10.0 mi SSE 4.6 mph - N/A   Clear
10:15 AM 33.8 °F 29.6 °F 28.4 °F 81% 30.24 in 10.0 mi SSE 4.6 mph - N/A   Clear
10:19 AM 33.8 °F 27.7 °F 28.4 °F 81% 30.24 in 10.0 mi SSE 6.9 mph - N/A   Clear
10:37 AM 35.6 °F 32.8 °F 30.2 °F 81% 30.24 in 10.0 mi SSE 3.5 mph - N/A   Clear
10:56 AM 35.6 °F 31.7 °F 30.2 °F 81% 30.24 in 10.0 mi SSE 4.6 mph - N/A   Clear
11:15 AM 37.4 °F 33.8 °F 30.2 °F 75% 30.24 in 10.0 mi SE 4.6 mph - N/A   Clear
11:58 AM 41.0 °F 35.8 °F 32.0 °F 70% 30.22 in 10.0 mi SE 8.1 mph - N/A   Clear
12:16 PM 42.8 °F 38.0 °F 32.0 °F 66% 30.21 in 10.0 mi SE 8.1 mph - N/A   Clear
12:35 PM 44.6 °F 39.7 °F 32.0 °F 61% 30.21 in 10.0 mi SSE 9.2 mph - N/A   Clear
12:55 PM 44.6 °F 39.7 °F 32.0 °F 61% 30.20 in 10.0 mi SSE 9.2 mph - N/A   Clear
1:15 PM 46.4 °F 42.4 °F 32.0 °F 57% 30.19 in 10.0 mi SE 8.1 mph - N/A   Clear
1:19 PM 46.4 °F 42.4 °F 32.0 °F 57% 30.19 in 10.0 mi SSE 8.1 mph - N/A   Clear
1:37 PM 50.0 °F - 32.0 °F 50% 30.18 in 10.0 mi SE 10.4 mph - N/A   Clear
1:55 PM 50.0 °F - 32.0 °F 50% 30.17 in 10.0 mi SSE 11.5 mph - N/A   Clear
2:16 PM 51.8 °F - 32.0 °F 47% 30.16 in 10.0 mi SE 10.4 mph - N/A   Clear
2:35 PM 51.8 °F - 32.0 °F 47% 30.16 in 10.0 mi SSE 9.2 mph - N/A   Clear
2:59 PM 53.6 °F - 32.0 °F 44% 30.15 in 10.0 mi SSE 11.5 mph 16.1 mph N/A   Clear
3:35 PM 51.8 °F - 32.0 °F 47% 30.15 in 10.0 mi SSE 10.4 mph 16.1 mph N/A   Clear
3:56 PM 51.8 °F - 32.0 °F 47% 30.15 in 10.0 mi SSE 8.1 mph - N/A   Clear
4:15 PM 50.0 °F - 32.0 °F 50% 30.15 in 10.0 mi SSE 10.4 mph - N/A   Clear
4:20 PM 50.0 °F - 32.0 °F 50% 30.15 in 10.0 mi SSE 9.2 mph - N/A   Clear
4:37 PM 46.4 °F 42.4 °F 32.0 °F 57% 30.14 in 10.0 mi SE 8.1 mph - N/A   Clear
4:55 PM 44.6 °F 40.2 °F 32.0 °F 61% 30.14 in 10.0 mi SE 8.1 mph - N/A   Clear
5:16 PM 42.8 °F 38.6 °F 32.0 °F 66% 30.14 in 10.0 mi SE 6.9 mph - N/A   Clear
5:36 PM 41.0 °F 35.8 °F 32.0 °F 70% 30.14 in 10.0 mi SE 8.1 mph - N/A   Clear
5:58 PM 41.0 °F 35.8 °F 32.0 °F 70% 30.14 in 10.0 mi SE 8.1 mph - N/A   Clear
6:17 PM 41.0 °F 35.8 °F 32.0 °F 70% 30.15 in 10.0 mi SE 8.1 mph - N/A   Clear
6:36 PM 39.2 °F 34.2 °F 32.0 °F 75% 30.16 in 10.0 mi SE 6.9 mph - N/A   Clear
6:56 PM 37.4 °F 32.8 °F 32.0 °F 81% 30.16 in 10.0 mi SSE 5.8 mph - N/A   Clear
7:15 PM 37.4 °F 31.4 °F 32.0 °F 81% 30.16 in 10.0 mi SSE 8.1 mph - N/A   Clear
7:19 PM 37.4 °F 32.1 °F 32.0 °F 81% 30.16 in 10.0 mi SSE 6.9 mph - N/A   Clear
7:56 PM 37.4 °F 32.1 °F 32.0 °F 81% 30.16 in 10.0 mi SSE 6.9 mph - N/A   Clear
8:15 PM 37.4 °F 32.1 °F 32.0 °F 81% 30.16 in 10.0 mi SSE 6.9 mph - N/A   Clear
8:36 PM 37.4 °F 30.3 °F 32.0 °F 81% 30.16 in 10.0 mi SSE 10.4 mph - N/A   Clear
8:58 PM 37.4 °F 30.8 °F 32.0 °F 81% 30.15 in 10.0 mi SSE 9.2 mph - N/A   Clear
9:17 PM 37.4 °F 30.3 °F 32.0 °F 81% 30.15 in 10.0 mi SSE 10.4 mph 17.3 mph N/A   Clear
9:35 PM 37.4 °F 30.3 °F 30.2 °F 75% 30.15 in 10.0 mi SSE 10.4 mph - N/A   Clear
9:56 PM 37.4 °F 30.3 °F 30.2 °F 75% 30.15 in 10.0 mi SSE 10.4 mph 16.1 mph N/A   Clear
10:15 PM 37.4 °F 29.8 °F 30.2 °F 75% 30.15 in 10.0 mi SSE 11.5 mph - N/A   Clear
10:20 PM 37.4 °F 29.8 °F 30.2 °F 75% 30.15 in 10.0 mi SSE 11.5 mph - N/A   Clear
10:38 PM 37.4 °F 29.3 °F 30.2 °F 75% 30.14 in 10.0 mi SSE 12.7 mph - N/A   Clear
11:16 PM 35.6 °F 27.5 °F 30.2 °F 81% 30.13 in 10.0 mi SSE 11.5 mph - N/A   Clear
11:36 PM 35.6 °F 28.0 °F 30.2 °F 81% 30.13 in 10.0 mi SSE 10.4 mph - N/A   Clear
11:59 PM 35.6 °F 28.0 °F 30.2 °F 81% 30.13 in 10.0 mi SSE 10.4 mph - N/A   Clear